Flag for Algeria Weather past 2 weeks in Constantine, Algeria

Now
50 °F

Passing clouds.


Feels Like: 46 °F
Forecast: 44 / 67 °F
Wind: 12 mph from Northwest

Location: Constantine Airport

Current Time: Mar 29, 2015 at 5:46:53 AM

Latest Report: Mar 29, 2015 at 5:30 AM


Visibility: N/A

Pressure: 30.18 "Hg

Humidity: 76%

Dew point: 43 °F

Location of ConstantineLocation

Historic Weather in Constantine — Graph

°F

Constantine temperature yesterday

Maximum temperature yesterday: 59 °F (at 12:30 PM)
Minimum temperature yesterday: 46 °F (at 12:30 AM)
Average temperature yesterday: 51 °F

Past Weeks' High & Low Weather Summary

 TemperatureHumidityPressure
High79 °F (Mar 19, 3:30 PM)100% (Mar 24, 2:00 PM)30.21 "Hg (Mar 24, 2:00 PM)
Low37 °F (Mar 14, 5:30 AM)27% (Mar 23, 4:30 PM)29.45 "Hg (Mar 24, 4:00 PM)
Average52 °F70%29.91 "Hg
* Reported Mar 14 4:00 AM — Mar 29 4:30 AM, Constantine, Weather by CustomWeather, © 2015

Note: Actual official high and low records may vary slightly from our data, if they occured in-between our weather recording intervals... More about our weather records

Advertising

Constantine weather history for previous 24 hours

 ConditionsComfort  
Time TempWeatherWind HumidityBarometerVisibility
4:30 AM
Sun, Mar 29
50 °FPassing clouds.14 mph76%30.18 "HgN/A
4:00 AM50 °FPassing clouds.16 mph76%30.18 "HgN/A
3:30 AM52 °FPassing clouds.16 mph77%30.18 "HgN/A
3:00 AM52 °FPassing clouds.16 mph77%30.21 "HgN/A
2:30 AM52 °FPassing clouds.17 mph77%30.21 "HgN/A
1:30 AM52 °FPassing clouds.17 mph77%30.21 "HgN/A
1:00 AM50 °FPassing clouds.17 mph82%30.21 "HgN/A
12:30 AM50 °FPassing clouds.16 mph82%30.21 "Hg5 mi
12:00 AM50 °FPassing clouds.14 mph88%30.21 "Hg5 mi
11:30 PM
Sat, Mar 28
48 °FPassing clouds.14 mph94%30.21 "Hg4 mi
11:00 PM48 °FPassing clouds.15 mph94%30.21 "Hg4 mi
10:30 PM48 °FPassing clouds.16 mph94%30.21 "Hg4 mi
9:30 PM48 °FLight rain. Passing clouds.12 mph94%30.21 "Hg4 mi
9:00 PM48 °FPassing clouds.9 mph94%30.21 "Hg4 mi
8:30 PM48 °FLight rain. Passing clouds.16 mph87%30.21 "Hg4 mi
8:00 PM48 °FLight rain. Passing clouds.16 mph82%30.21 "Hg5 mi
7:30 PM50 °FPassing clouds.18 mph71%30.18 "HgN/A
7:00 PM50 °FPassing clouds.20 mph67%30.18 "HgN/A
6:30 PM50 °FPartly sunny.22 mph67%30.18 "HgN/A
6:00 PM52 °FScattered clouds.28 mph62%30.15 "HgN/A
5:30 PM52 °FScattered clouds.25 mph58%30.15 "HgN/A
5:00 PM54 °FScattered clouds.29 mph54%30.15 "HgN/A
4:30 PM55 °FScattered clouds.21 mph51%30.15 "HgN/A
4:00 PM55 °FScattered clouds.24 mph51%30.15 "HgN/A
3:30 PM55 °FScattered clouds.23 mph47%30.12 "HgN/A
3:00 PM57 °FScattered clouds.23 mph48%30.12 "HgN/A
2:30 PM57 °FPassing clouds.23 mph55%30.09 "HgN/A
2:00 PM57 °FPassing clouds.25 mph51%30.09 "HgN/A
1:30 PM57 °FPassing clouds.23 mph51%30.12 "HgN/A
1:00 PM57 °FPassing clouds.23 mph51%30.12 "HgN/A
12:30 PM59 °FPassing clouds.21 mph51%30.12 "HgN/A
12:00 PM57 °FPassing clouds.18 mph59%30.12 "HgN/A
11:30 AM57 °FPassing clouds.21 mph51%30.15 "HgN/A
11:00 AM57 °FPassing clouds.23 mph51%30.15 "HgN/A
10:30 AM55 °FPassing clouds.20 mph51%30.15 "HgN/A
10:00 AM55 °FPassing clouds.18 mph51%30.15 "HgN/A
9:30 AM54 °FPassing clouds.18 mph51%30.12 "HgN/A
9:00 AM54 °FPassing clouds.17 mph54%30.12 "HgN/A
8:30 AM52 °FPassing clouds.13 mph58%30.12 "HgN/A
8:00 AM52 °FPassing clouds.14 mph62%30.12 "HgN/A
7:30 AM50 °FPassing clouds.16 mph62%30.09 "HgN/A
7:00 AM48 °FPassing clouds.16 mph66%30.09 "HgN/A
6:30 AM48 °FPassing clouds.18 mph66%30.09 "HgN/A
6:00 AM48 °FPassing clouds.18 mph66%30.07 "HgN/A
5:30 AM48 °FPassing clouds.23 mph66%30.07 "HgN/A
5:00 AM48 °FPassing clouds.25 mph66%30.07 "HgN/A
Weather by CustomWeather, © 2015

See weather overviewHow to use our weather pages